1323388834259,185.406
1323388894259,185.694
1323388954259,185.374
1323389014259,185.579
1323389074259,185.506
1323389134259,185.607
1323389194259,185.465
1323389254259,185.392
1323389314259,185.709
1323389374259,185.548
1323389434259,185.659
1323389494259,185.355
1323389554260,185.414
1323389614259,185.162
1323389674259,185.481
1323389734259,185.374
1323389794259,185.391
1323389854259,185.405
1323389914259,185.235
1323389974259,185.043
1323390034259,185.805
1323390094259,185.083
1323390154259,185.113
1323390214259,185.128
1323390274259,185.357
1323390334259,185.438
1323390394259,185.470
1323390454259,185.581
1323390514259,185.506
1323390574259,185.632
1323390634259,185.336
1323390694259,185.616
1323390754259,185.425
1323390814259,185.631
1323390874260,185.379
1323390934259,185.435
1323390994259,185.461
1323391054259,185.676
1323391114259,185.761
1323391174259,185.304
1323391234259,184.860
1323391294259,185.553
1323391354259,184.881
1323391414259,185.612
1323391474259,185.295
1323391534259,185.513
1323391594259,185.731
1323391654259,185.575
1323391714259,185.201
1323391774259,185.482
1323391834259,185.383
1323391894259,185.194
1323391954259,185.245
1323392014259,185.475
1323392074259,185.373
1323392134259,185.277
1323392194259,185.235
1323392254260,185.416
1323392314259,185.287
1323392374259,185.456
1323392434270,185.131
1323392494270,184.915
1323392554270,185.221
1323392614270,185.456
1323392674270,185.105
1323392734270,185.208
1323392794270,185.084
1323392854270,185.113
1323392914270,185.377
1323392974270,185.218
1323393034270,185.058
1323393094270,185.179
1323393154270,185.120
1323393214270,185.153
1323393274270,185.383
1323393334270,185.413
1323393394270,185.322
1323393454270,184.917
1323393514270,184.767
1323393574270,185.119
1323393634270,184.893
1323393694270,185.258
1323393754270,184.895
1323393814270,185.084
1323393874270,185.054
1323393934270,184.741
1323393994270,184.836
1323394054270,184.667
1323394114270,184.472
1323394174270,184.947
1323394234270,184.836
1323394294270,185.109
1323394354270,184.770
1323394414270,184.725
1323394474270,184.661
1323394534270,184.870
1323394594270,184.591
1323394654270,184.815
1323394714270,184.586
1323394774270,184.606
1323394834270,184.634
1323394894270,184.697
1323394954270,184.516
1323395014270,184.653
1323395074270,184.814
1323395134270,185.213
1323395194270,185.020
1323395254270,185.067
1323395314270,184.889
1323395374270,184.809
1323395434270,184.940
1323395494270,184.826
1323395554270,184.734
1323395614270,184.788
1323395674270,184.582
1323395734270,184.313
1323395794270,184.752
1323395854270,184.998
1323395914270,184.442
1323395974270,184.711
1323396034280,184.707
1323396094280,184.563
1323396154280,184.732
1323396214280,184.321
1323396274280,184.646
1323396334280,184.656
1323396394280,184.463
1323396454280,184.597
1323396514280,184.874
1323396574280,184.253
1323396634280,184.622
1323396694280,184.470
1323396754280,184.496
1323396814280,184.531
1323396874280,184.668
1323396934280,184.524
1323396994280,184.386
1323397054280,184.686
1323397114280,184.471
1323397174280,184.330
1323397234280,184.629
1323397294280,184.691
1323397354280,184.438
1323397414280,184.351
1323397474280,184.309
1323397534280,184.124
1323397594280,184.139
1323397654280,184.067
1323397714280,184.749
1323397774280,184.393
1323397834280,184.566
1323397894280,184.031
1323397954280,184.165
1323398014280,184.159
1323398074280,184.039
1323398134280,184.171
1323398194280,183.995
1323398254280,184.257
1323398314280,184.235
1323398374280,184.360
1323398434280,183.894
1323398494280,184.213
1323398554280,184.125
1323398614280,184.260
1323398674280,184.236
1323398734280,184.115
1323398794280,184.052
1323398854280,183.928
1323398914280,183.876
1323398974280,183.790
1323399034280,183.641
1323399094280,183.645
1323399154280,184.203
1323399214280,183.987
1323399274280,183.861
1323399334280,183.623
1323399394280,183.575
1323399454280,183.859
1323399514280,183.589
1323399574280,183.904
1323399634290,184.148
1323399694290,183.709
1323399754290,183.894
1323399814290,183.671
1323399874290,183.743
1323399934290,183.990
1323399994290,183.766
1323400054290,184.057
1323400114290,184.000
1323400174290,183.618
1323400234290,183.970
1323400294290,183.929
1323400354290,183.855
1323400414290,183.888
1323400474290,183.575
1323400534290,183.714
1323400594290,183.957
1323400654290,183.615
1323400714290,183.699
1323400774290,183.429
1323400834290,183.799
1323400894290,183.658
1323400954290,183.668
1323401014290,183.947
1323401074290,183.580
1323401134290,183.734
1323401194290,183.410
1323401254290,183.662
1323401314290,183.270
1323401374290,183.500
1323401434290,183.406
1323401494290,183.801
1323401554290,183.873
1323401614290,183.596
1323401674290,183.822
1323401734290,183.766
1323401794290,183.650
1323401854290,183.832
1323401914290,183.515
1323401974290,183.479
1323402034290,183.846
1323402094290,183.552
1323402154290,183.660
1323402214290,183.937
1323402274290,183.276
1323402334290,183.503
1323402394290,183.494
1323402454290,183.731
1323402514290,183.853
1323402574290,183.760
1323402634290,183.278
1323402694290,182.969
1323402754290,183.731
1323402814290,183.516
1323402874290,183.718
1323402934290,183.581
1323402994290,183.402
1323403054290,183.213
1323403114290,183.264
1323403174290,183.507
1323403234300,183.251
1323403294300,183.171
1323403354300,183.328
1323403414300,183.599
1323403474300,183.705
1323403534300,183.395
1323403594300,183.572
1323403654300,183.808
1323403714300,183.134
1323403774300,183.343
1323403834300,183.574
1323403894300,183.472
1323403954300,183.441
1323404014300,183.454
1323404074300,182.977
1323404134300,183.079
1323404194300,183.466
1323404254300,183.245
1323404314300,183.350
1323404374300,183.494
1323404434300,183.239
1323404494300,183.709
1323404554300,183.572
1323404614300,183.454
1323404674300,183.510
1323404734300,183.411
1323404794300,183.434
1323404854300,183.582
1323404914300,183.531
1323404974300,183.471
1323405034300,183.465
1323405094300,183.436
1323405154300,183.523
1323405214300,183.475
1323405274300,183.668
1323405334300,183.360
1323405394300,183.544
1323405454300,183.131
1323405514300,183.226
1323405574300,183.129
1323405634300,183.488
1323405694300,183.152
1323405754300,183.415
1323405814300,183.340
1323405874300,183.360
1323405934300,183.195
1323405994300,183.504
1323406054300,183.420
1323406114300,183.108
1323406174300,183.561
1323406234300,183.695
1323406294300,183.370
1323406354300,183.178
1323406414300,183.290
1323406474300,183.368
1323406534300,183.566
1323406594300,183.140
1323406654300,182.996
1323406714300,183.204
1323406774300,183.022
1323406834310,183.150
1323406894310,182.786
1323406954310,183.018
1323407014310,182.778
1323407074310,182.828
1323407134310,182.992
1323407194310,183.165
1323407254310,182.716
1323407314310,182.810
1323407374310,182.851
1323407434310,182.837
1323407494310,183.044
1323407554310,182.984
1323407614310,182.831
1323407674310,182.590
1323407734310,182.868
1323407794310,182.447
1323407854310,182.725
1323407914310,182.690
1323407974310,182.458
1323408034310,182.452
1323408094310,182.855
1323408154310,183.017
1323408214310,182.866
1323408274310,182.837
1323408334310,182.716
1323408394310,182.800
1323408454310,182.785
1323408514310,182.298
1323408574310,182.591
1323408634310,182.730
1323408694310,182.912
1323408754310,183.155
1323408814310,182.927
1323408874310,182.899
1323408934310,183.088
1323408994310,183.038
1323409054310,182.757
1323409114310,182.629
1323409174310,182.902
1323409234310,182.622
1323409294310,183.007
1323409354310,182.715
1323409414310,183.038
1323409474310,182.957
1323409534310,183.065
1323409594310,182.894
1323409654310,182.741
1323409714310,183.135
1323409774310,183.044
1323409834310,182.577
1323409894310,182.851
1323409954310,183.133
1323410014310,182.725
1323410074310,183.137
1323410134310,183.008
1323410194310,182.828
1323410254310,182.755
1323410314310,183.029
1323410374310,182.877
1323410434321,183.216
1323410494321,182.829
1323410554321,182.618
1323410614321,182.516
1323410674321,182.671
1323410734321,182.839
1323410794321,182.682
1323410854321,182.764
1323410914321,182.784
1323410974321,182.769
1323411034321,182.454
1323411094321,182.939
1323411154321,182.762
1323411214321,182.652
1323411274321,182.321
1323411334321,181.984
1323411394321,182.349
1323411454321,182.484
1323411514321,182.353
1323411574321,182.273
1323411634321,182.257
1323411694321,182.262
1323411754321,182.105
1323411814321,181.844
1323411874321,182.120
1323411934321,181.948
1323411994321,182.174
1323412054321,182.227
1323412114321,182.016
1323412174321,182.130
1323412234321,181.642
1323412294321,181.778
1323412354321,181.958
1323412414321,181.994
1323412474321,181.686
1323412534321,181.491
1323412594321,181.637
1323412654321,181.728
1323412714321,181.463
1323412774321,181.580
1323412834321,181.549
1323412894321,181.381
1323412954321,181.396
1323413014321,181.469
1323413074321,181.789
1323413134321,181.527
1323413194321,181.696
1323413254321,181.402
1323413314321,181.593
1323413374321,181.472
1323413434321,181.768
1323413494321,181.653
1323413554321,181.583
1323413614321,181.556
1323413674321,181.412
1323413734321,181.680
1323413794321,181.561
1323413854321,181.649
1323413914321,182.502
1323413974321,181.548
1323414034332,181.753
1323414094332,181.540
1323414154332,181.911
1323414214332,181.745
1323414274332,181.919
1323414334332,181.383
1323414394332,181.718
1323414454332,181.683
1323414514332,181.648
1323414574332,181.724
1323414634332,181.550
1323414694332,181.715
1323414754332,181.552
1323414814332,181.831
1323414874332,181.768
1323414934332,181.505
1323414994332,181.601
1323415054332,181.275
1323415114332,182.083
1323415174332,181.843
1323415234332,181.845
1323415294332,181.612
1323415354332,181.288
1323415414332,181.887
1323415474332,181.622
1323415534332,181.633
1323415594332,181.312
1323415654332,181.555
1323415714332,181.619
1323415774332,181.653
1323415834332,181.660
1323415894332,181.671
1323415954332,181.923
1323416014332,181.817
1323416074332,182.130
1323416134332,181.536
1323416194332,181.956
1323416254332,181.526
1323416314332,181.590
1323416374332,181.282
1323416434332,182.065
1323416494332,181.616
1323416554332,181.702
1323416614332,181.493
1323416674332,181.828
1323416734332,181.473
1323416794332,181.776
1323416854332,181.761
1323416914332,181.808
1323416974332,181.433
1323417034332,181.782
1323417094332,181.594
1323417154332,181.291
1323417214332,181.628
1323417274332,181.457
1323417334332,181.558
1323417394332,181.655
1323417454332,181.595
1323417514332,181.643
1323417574332,181.558
1323417634343,181.752
1323417694343,181.796
1323417754343,181.508
1323417814343,181.714
1323417874343,181.643
1323417934343,181.639
1323417994343,181.399
1323418054343,181.096
1323418114343,181.685
1323418174343,181.571
1323418234343,181.606
1323418294343,181.342
1323418354343,181.423
1323418414343,181.661
1323418474343,181.950
1323418534343,181.461
1323418594343,181.615
1323418654343,181.622
1323418714343,181.709
1323418774343,181.540
1323418834343,181.508
1323418894343,181.550
1323418954343,181.573
1323419014343,181.395
1323419074343,181.471
1323419134343,181.442
1323419194343,181.387
1323419254343,181.558
1323419314343,181.395
1323419374343,181.587
1323419434343,181.619
1323419494343,181.319
1323419554343,181.282
1323419614343,181.443
1323419674343,181.810
1323419734343,181.580
1323419794343,181.322
1323419854343,181.307
1323419914343,181.250
1323419974343,181.227
1323420034343,181.148
1323420094343,181.329
1323420154343,181.363
1323420214343,181.659
1323420274343,181.451
1323420334343,181.512
1323420394343,181.525
1323420454343,180.961
1323420514343,181.095
1323420574343,181.133
1323420634343,181.269
1323420694343,181.266
1323420754343,181.459
1323420814343,180.850
1323420874343,181.106
1323420934343,181.291
1323420994343,181.303
1323421054343,181.283
1323421114343,181.466
1323421174343,181.674
1323421234354,181.580
1323421294354,181.762
1323421354354,181.774
1323421414354,181.388
1323421474354,181.571
1323421534354,181.545
1323421594354,181.212
1323421654354,181.714
1323421714354,181.637
1323421774354,181.811
1323421834354,181.471
1323421894354,181.709
1323421954354,181.427
1323422014354,181.986
1323422074354,181.391
1323422134354,181.450
1323422194354,181.434
1323422254354,181.441
1323422314354,181.505
1323422374354,181.483
1323422434354,181.625
1323422494354,181.241
1323422554354,181.525
1323422614354,181.491
1323422674354,181.184
1323422734354,181.665
1323422794354,181.484
1323422854354,181.470
1323422914354,181.773
1323422974354,181.790
1323423034354,181.700
1323423094354,181.654
1323423154354,181.717
1323423214354,181.414
1323423274354,181.606
1323423334354,181.592
1323423394354,181.714
1323423454354,181.611
1323423514354,181.438
1323423574354,181.499
1323423634354,181.132
1323423694354,181.612
1323423754354,181.444
1323423814354,181.687
1323423874354,181.739
1323423934354,181.591
1323423994354,181.495
1323424054354,181.665
1323424114354,181.477
1323424174354,181.362
1323424234354,181.480
1323424294354,181.309
1323424354354,181.581
1323424414354,181.334
1323424474354,181.531
1323424534354,181.377
1323424594354,181.545
1323424654354,181.426
1323424714354,181.031
1323424774354,181.607
1323424834365,181.354
1323424894365,181.501
1323424954365,181.269
1323425014365,181.541
1323425074365,181.647
1323425134365,181.307
1323425194365,181.534
1323425254365,181.574
1323425314365,181.507
1323425374365,181.548
1323425434365,181.594
1323425494365,181.073
1323425554365,181.648
1323425614365,181.639
1323425674365,181.180
1323425734365,181.529
1323425794365,181.481
1323425854365,181.502
1323425914365,181.527
1323425974365,181.372
1323426034365,181.258
1323426094365,181.665
1323426154365,181.319
1323426214365,181.459
1323426274365,181.336
1323426334365,181.304
1323426394365,181.492
1323426454365,181.230
1323426514365,181.527
1323426574365,181.306
1323426634365,181.353
1323426694365,181.596
1323426754365,181.522
1323426814365,181.578
1323426874365,181.362
1323426934365,181.169
1323426994365,181.511
1323427054365,181.226
1323427114365,181.469
1323427174365,181.861
1323427234365,181.613
1323427294365,181.144
1323427354365,181.528
1323427414365,181.368
1323427474365,181.464
1323427534365,181.478
1323427594365,181.310
1323427654365,181.501
1323427714365,181.426
1323427774365,181.218
1323427834365,181.302
1323427894365,181.400
1323427954365,181.279
1323428014365,181.579
1323428074365,181.610
1323428134365,181.530
1323428194365,181.485
1323428254365,181.108
1323428314365,181.022
1323428374365,180.940
1323428434377,181.384
1323428494377,181.332
1323428554377,181.111
1323428614377,181.371
1323428674377,181.042
1323428734377,180.976
1323428794377,181.243
1323428854377,181.061
1323428914377,181.202
1323428974377,180.941
1323429034377,181.003
1323429094377,181.020
1323429154377,180.718
1323429214377,181.044
1323429274377,181.021
1323429334377,181.049
1323429394377,181.211
1323429454377,180.763
1323429514377,181.040
1323429574377,180.967
1323429634377,181.348
1323429694377,181.067
1323429754377,181.086
1323429814377,181.109
1323429874377,181.025
1323429934377,180.208
1323429994377,180.920
1323430054377,180.751
1323430114377,180.676
1323430174377,181.054
1323430234377,180.676
1323430294377,180.652
1323430354377,180.876
1323430414377,180.354
1323430474377,180.592
1323430534377,180.612
1323430594377,180.561
1323430654377,180.345
1323430714377,180.667
1323430774377,180.672
1323430834377,180.574
1323430894377,180.746
1323430954377,180.568
1323431014377,180.819
1323431074377,180.270
1323431134377,180.504
1323431194377,180.453
1323431254377,180.906
1323431314377,180.659
1323431374377,180.860
1323431434377,180.555
1323431494377,181.034
1323431554377,180.478
1323431614377,180.744
1323431674377,180.614
1323431734377,180.467
1323431794377,180.601
1323431854377,180.943
1323431914377,180.511
1323431974377,180.880
1323432034389,180.813
1323432094389,180.770
1323432154389,180.641
1323432214389,180.832
1323432274389,180.806
1323432334389,181.021
1323432394389,180.975
1323432454389,180.723
1323432514389,180.842
1323432574389,181.017
1323432634389,180.729
1323432694389,180.794
1323432754389,180.850
1323432814389,181.097
1323432874389,181.231
1323432934389,181.230
1323432994389,181.164
1323433054389,181.218
1323433114389,181.096
1323433174389,181.213
1323433234389,181.148
1323433294389,180.941
1323433354389,181.167
1323433414389,181.290
1323433474389,181.498
1323433534389,181.385
1323433594389,181.032
1323433654389,181.150
1323433714389,181.529
1323433774389,181.636
1323433834389,181.232
1323433894389,181.439
1323433954389,181.511
1323434014389,181.688
1323434074389,181.708
1323434134389,181.675
1323434194389,181.934
1323434254389,181.552
1323434314389,181.707
1323434374389,181.735
1323434434389,181.447
1323434494389,181.626
1323434554389,181.549
1323434614389,181.843
1323434674389,181.915
1323434734389,181.966
1323434794389,181.888
1323434854389,181.595
1323434914389,181.773
1323434974389,181.850
1323435034389,181.802
1323435094389,181.973
1323435154389,181.931
1323435214389,181.715
1323435274389,181.870
1323435334389,181.962
1323435394389,181.892
1323435454389,181.540
1323435514389,181.618
1323435574389,181.567
1323435634401,181.690
1323435694401,181.866
1323435754401,181.906
1323435814401,182.014
1323435874401,182.011
1323435934401,181.999
1323435994401,181.852
1323436054401,182.038
1323436114401,182.420
1323436174401,182.310
1323436234401,181.878
1323436294401,181.954
1323436354401,181.960
1323436414401,181.710
1323436474401,181.914
1323436534401,181.539
1323436594401,181.567
1323436654401,181.789
1323436714401,181.452
1323436774401,181.702
1323436834401,180.978
1323436894401,181.230
1323436954401,181.199
1323437014401,180.883
1323437074401,181.280
1323437134401,180.954
1323437194401,180.946
1323437254401,181.443
1323437314401,181.262
1323437374401,181.502
1323437434401,181.677
1323437494401,181.416
1323437554401,181.483
1323437614401,181.690
1323437674401,181.578
1323437734401,181.096
1323437794401,180.948
1323437854401,180.883
1323437914401,181.082
1323437974401,181.024
1323438034401,181.181
1323438094401,180.760
1323438154401,181.083
1323438214401,180.896
1323438274401,180.654
1323438334401,180.680
1323438394401,180.499
1323438454401,180.526
1323438514401,179.909
1323438574401,180.018
1323438634401,179.992
1323438694401,180.071
1323438754401,179.722
1323438814401,179.718
1323438874401,179.706
1323438934401,180.299
1323438994401,179.943
1323439054401,179.711
1323439114401,179.531
1323439174401,179.892
1323439234413,179.921
1323439294413,179.629
1323439354413,180.006
1323439414413,180.266
1323439474413,179.708
1323439534413,179.213
1323439594413,179.143
1323439654413,179.575
1323439714413,179.120
1323439774413,179.221
1323439834413,179.197
1323439894413,179.593
1323439954413,179.332
1323440014413,178.905
1323440074413,179.139
1323440134413,179.252
1323440194413,179.290
1323440254413,179.055
1323440314413,179.208
1323440374413,179.029
1323440434413,179.231
1323440494413,178.955
1323440554413,179.136
1323440614413,179.219
1323440674413,179.518
1323440734413,179.135
1323440794413,179.046
1323440854413,178.933
1323440914413,179.053
1323440974413,179.423
1323441034413,179.154
1323441094413,179.082
1323441154413,179.160
1323441214413,179.116
1323441274413,179.255
1323441334413,179.431
1323441394413,179.254
1323441454413,179.132
1323441514413,179.235
1323441574413,179.011
1323441634413,179.295
1323441694413,179.383
1323441754413,179.105
1323441814413,179.102
1323441874413,179.377
1323441934413,179.134
1323441994413,179.110
1323442054413,179.099
1323442114413,179.229
1323442174413,179.506
1323442234413,179.158
1323442294413,179.164
1323442354413,179.216
1323442414413,179.235
1323442474413,179.007
1323442534413,178.809
1323442594413,179.106
1323442654413,178.959
1323442714413,179.036
1323442774413,179.368
1323442834425,179.272
1323442894425,178.833
1323442954425,178.707
1323443014425,178.770
1323443074425,178.628
1323443134425,178.897
1323443194425,178.860
1323443254425,179.124
1323443314425,178.735
1323443374425,178.947
1323443434425,178.888
1323443494425,178.909
1323443554425,178.788
1323443614425,178.668
1323443674425,178.854
1323443734425,178.736
1323443794425,178.629
1323443854425,178.273
1323443914425,179.202
1323443974425,178.657
1323444034425,178.643
1323444094425,178.690
1323444154425,178.406
1323444214425,178.338
1323444274425,178.557
1323444334425,178.644
1323444394425,178.452
1323444454425,178.440
1323444514425,178.773
1323444574425,178.665
1323444634425,178.451
1323444694425,178.404
1323444754425,178.432
1323444814425,178.358
1323444874425,178.660
1323444934425,178.172
1323444994425,178.084
1323445054425,178.397
1323445114425,178.167
1323445174425,178.045
1323445234425,178.656
1323445294425,178.344
1323445354425,178.007
1323445414425,178.559
1323445474425,178.124
1323445534425,178.039
1323445594425,177.891
1323445654425,178.111
1323445714425,178.279
1323445774425,178.396
1323445834425,178.178
1323445894425,178.207
1323445954425,178.120
1323446014425,178.342
1323446074425,178.503
1323446134425,178.043
1323446194425,177.838
1323446254425,178.177
1323446314425,178.371
1323446374425,178.007
1323446434437,178.080
1323446494437,178.198
1323446554437,178.304
1323446614437,178.191
1323446674437,178.473
1323446734437,178.535
1323446794437,178.192
1323446854437,178.321
1323446914437,178.353
1323446974437,178.458
1323447034437,178.365
1323447094437,178.703
1323447154437,178.478
1323447214437,178.548
1323447274437,178.484
1323447334437,178.740
1323447394437,178.596
1323447454437,178.537
1323447514437,178.526
1323447574437,178.276
1323447634437,178.935
1323447694437,179.089
1323447754437,178.411
1323447814437,178.683
1323447874437,178.930
1323447934437,178.885
1323447994437,178.957
1323448054437,179.005
1323448114437,178.571
1323448174437,178.942
1323448234437,179.266
1323448294437,178.818
1323448354437,178.965
1323448414437,178.766
1323448474437,179.460
1323448534437,178.792
1323448594437,179.286
1323448654437,179.031
1323448714437,179.219
1323448774437,179.211
1323448834437,179.103
1323448894437,179.143
1323448954437,179.481
1323449014437,178.988
1323449074437,179.466
1323449134437,178.990
1323449194437,179.053
1323449254437,179.211
1323449314437,179.205
1323449374437,179.497
1323449434437,179.414
1323449494437,179.404
1323449554437,179.400
1323449614437,179.060
1323449674437,179.043
1323449734437,179.148
1323449794437,179.082
1323449854437,179.479
1323449914437,179.224
1323449974437,179.460
1323450034449,179.384
1323450094449,179.291
1323450154449,179.102
1323450214449,179.191
1323450274449,179.281
1323450334449,179.658
1323450394449,179.414
1323450454449,179.262
1323450514449,179.277
1323450574449,179.389
1323450634448,179.657
1323450694448,179.164
1323450754448,179.442
1323450814448,179.474
1323450874448,179.499
1323450934449,179.545
1323450994449,179.557
1323451054449,179.483
1323451114449,179.342
1323451174449,179.370
1323451234449,179.668
1323451294449,179.152
1323451354449,179.564
1323451414449,179.560
1323451474449,179.426
1323451534449,179.507
1323451594449,179.618
1323451654449,179.625
1323451714449,179.437
1323451774449,179.389
1323451834449,179.626
1323451894449,179.399
1323451954448,179.938
1323452014448,179.495
1323452074448,179.778
1323452134448,180.119
1323452194448,179.804
1323452254448,179.870
1323452314449,179.877
1323452374449,179.620
1323452434449,179.761
1323452494449,179.976
1323452554449,179.916
1323452614449,179.908
1323452674449,180.190
1323452734449,180.117
1323452794449,180.246
1323452854449,179.958
1323452914449,180.101
1323452974449,180.179
1323453034449,180.258
1323453094449,180.173
1323453154449,180.557
1323453214449,180.090
1323453274449,180.487
1323453334448,180.174
1323453394448,180.300
1323453454448,180.451
1323453514448,180.346
1323453574448,180.342
1323453634460,180.353
1323453694460,180.301
1323453754460,180.546
1323453814460,180.806
1323453874460,180.504
1323453934460,180.609
1323453994460,180.729
1323454054460,180.685
1323454114460,180.347
1323454174460,180.546